Weather in Sos'va

Russia / Khanty-Mansi Autonomous Okrug — Yugra     63°38′53″N   62°05′54″E
temp.,
°C
wind,
m/s
gust,
m/s
humid.,
%
clouds,
%
prec.,
mm/h
press.,
hPa
HPBL,
m
20 september, mon
mon2023:00+2n51297100 0.0 1016785
02:00+2n4128528 0.0 1018764
05:00−1nnw28915 0.0 1021229
08:000nnw3980100 0.0 1023364
11:00+5n46595 0.0 1025825
14:00+7n465399 0.0 10261274
17:00+7nne245760 0.0 10271220
20:00+2e1182100 0.0 102710
21 september, tue
tue2123:00+1w1186100 0.0 102710
02:00+1wnw2383100 0.0 102770
05:000wnw2587100 0.0 1026109
08:00+2w278081 0.0 1024222
11:00+5wnw3767100 0.0 1023381
14:00+8wnw3760100 0.0 1022554
17:00+9nw3766100 0.0 1022499
20:00+6nnw3876100 0.0 1022308
22 september, wed
wed2223:00+5nw3880100 0.0 1023286
02:00+5nw2782100 0.0 1023223
05:00+4nnw2585100 0.0 1024172
08:00+5nnw1485100 0.0 1024134
11:00+8nnw126732 0.0 1025792
14:00+10nw235721 0.0 10251185
17:00+10nw136172 0.0 1025606
20:00+8wnw0069100 0.0 102510
23 september, thu
thu2323:00+7sw1172100 0.0 102610
02:00+5w11855 0.0 102621
05:00+3w119366 0.0 102610
08:00+4w128889 0.0 102663
11:00+9wsw126810 0.0 1026399
14:00+11wsw1262100 0.0 1026592
17:00+10ssw1168100 0.0 102510
20:00+7sse1175100 0.0 102510
24 september, fri
fri2423:00+6ssw1182100 0.0 102410
02:00+5sw1190100 0.0 102416
05:00+4wsw1192100 0.0 102410
08:00+5wsw0086100 0.0 102418
11:00+8sw1169100 0.0 1024272
14:00+12sw115854 0.0 1023546
17:00+11ssw116451 0.0 102317
20:00+7ese1179100 0.0 102410